Hourly Data Report for September 21, 2003

SHERBROOKE A
QUEBEC

45°26'00.000" N
71°41'00.000" W
241.40 m
7028124
71610
YSC

Download Data

Hourly Data (September 2003)
Hourly Data Report for September 21, 2003
TIME
LST
Temp Definition
°C
Dew Point Definition
°C
Rel Hum Definition
%
Precip. Amount Definition
mm

Wind Dir Definition
10's deg

Wind Spd Definition
km/h
Visibility Definition
km
Stn Press Definition
kPa
Hmdx Definition


Wind Chill Definition


Weather Definition


00:00 7.3 6.5 95     0 15.0 99.49      
01:00 6.9 6.4 97     0 8.0 99.51      
02:00 8.6 8.1 97     0 15.0 99.53      
03:00 9.3 8.6 95     0 15.0 99.56      
04:00 9.3 8.8 97     0 15.0 99.60      
05:00 9.6 8.9 95     0 15.0 99.64      
06:00 10.0 9.4 96     0 15.0 99.71      
07:00 11.7 10.7 94   23 4 24.1 99.74     Cloudy
08:00 13.1 11.3 89   24 4 24.1 99.76     Cloudy
09:00 14.8 11.6 81     0 24.1 99.78     Cloudy
10:00 15.7 11.5 76   26 4 24.1 99.79     Cloudy
11:00 17.1 11.9 71   27 11 24.1 99.78     Cloudy
12:00 17.3 10.7 65   29 9 24.1 99.74     Cloudy
13:00 17.1 9.8 62   31 9 24.1 99.72     Cloudy
14:00 17.2 10.7 66   32 7 24.1 99.71     Cloudy
15:00 16.7 11.5 71   31 7 24.1 99.71     Cloudy
16:00 15.8 11.9 78   30 6 24.1 99.72     Cloudy
17:00 15.5 12.1 80     0 15.0 99.72      
18:00 14.5 12.4 87   16 4 15.0 99.73      
19:00 13.8 12.1 89     0 15.0 99.74      
20:00 13.3 11.9 91     0 15.0 99.75      
21:00 13.2 11.9 92   30 4 15.0 99.78      
22:00 13.1 11.9 92     0 15.0 99.81      
23:00 13.0 12.2 95   14 4 15.0 99.79      

Notes on Data Quality.

Legend

  • E = Estimated
  • M = Missing
  • NA = Not Available*
  • [empty] = Indicates an unobserved value
Date modified: